Regional Weather Roundup
Issued by NWS

Home | Current Version | Previous Version | Graphics & Text | Print | Product List | Glossary On
Versions: 1 2 3 4 5 6 7 8 9 10 11 12 13 14 15 16 17 18 19 20 21 22 23 24 25 26 27 28 29 30 31 32 33 34 35 36 37 38 39 40 41 42 43 44 45 46 47 48 49 50
000
ASUS43 KTOP 300359
RWRKS

WEATHER ROUNDUP FOR KANSAS
NATIONAL WEATHER SERVICE GOODLAND KS
1100 PM CDT FRI AUG 29 2014

NOTE:  "FAIR" INDICATES FEW OR NO CLOUDS BELOW 12,000 FEET WITH NO
SIGNIFICANT WEATHER AND/OR OBSTRUCTIONS TO VISIBILITY.

KSZ001>006-013>018-027>032-041>047-300500-
NORTHWEST KANSAS

CITY           SKY/WX    TMP DP  RH WIND       PRES   REMARKS
GOODLAND       PTCLDY    63  56  78 W3        30.05R
HAYS           CLEAR     66  54  63 CALM      29.95R
HILL CITY      CLEAR     67  62  84 N3        29.96R
RUSSELL        CLEAR     73  57  57 N6        29.92R
$$

KSZ061>065-074>080-084>089-300500-
SOUTHWEST KANSAS

CITY           SKY/WX    TMP DP  RH WIND       PRES   REMARKS
DODGE CITY     CLEAR     67  54  63 CALM      29.98R
ELKHART          N/A     64  52  65 SE8         N/A
GARDEN CITY    CLEAR     73  51  46 E5        29.99R
GREAT BEND     CLEAR     70  61  73 NW3       29.93R
LIBERAL        CLEAR     70  50  49 CALM      30.02R
$$

KSZ066>073-081>083-090>101-300500-
SOUTHEAST KANSAS

CITY           SKY/WX    TMP DP  RH WIND       PRES   REMARKS
CHANUTE        PTCLDY    74  66  76 S6        29.90R
COFFEYVILLE    PTCLDY    75  69  81 S8        29.89R
HUTCHINSON     CLEAR     70  66  87 CALM      29.91R
NEWTON         CLEAR     70  61  73 S6        29.94R
PARSONS        CLEAR     77  67  71 S7        29.90R
WICHITA INTL   PTCLDY    70  66  87 S5        29.90R
WICHITA JABRA  CLEAR     73  66  78 SW7       29.90R
WINFIELD       CLEAR     72  67  84 S6        29.91R
$$

KSZ007>012-019>026-033>040-048>060-102>105-300500-
NORTHEAST KANSAS

CITY           SKY/WX    TMP DP  RH WIND       PRES   REMARKS
CONCORDIA      CLEAR     69  66  90 W7        29.90R
EMPORIA        CLEAR     73  65  75 S9        29.89R
LAWRENCE       PTCLDY    76  68  76 SW12      29.85R
MANHATTAN      MOCLDY    72  64  76 CALM      29.87R
OLATHE IND     PTCLDY    77  65  66 SW12      29.87R
OLATHE EXE     PTCLDY    75  65  70 S5        29.86S
SALINA         PTCLDY    77  64  64 SW6       29.89R
TOPEKA BILLARD MOCLDY    75  72  90 S3        29.85R
TOPEKA FORBES  PTCLDY    74  68  81 SW9       29.86R
$$



USA.gov is the U.S. government's official web portal to all federal, state and local government web resources and services.